DW9161 Weather Reports


time (UTC)temp
F
wind
direction
speed
knots
gust
knots
rain 1hr
in
rain 24hr
in
rain mn
in
humidity
%
barometer
mb
20260505012032 62 359 7.0 19.1 0.00 0.00 0.00 40 1006.2
20260505011548 62 360 6.1 12.2 0.00 0.00 0.00 38 1006.3
20260505011043 63 329 6.1 20.0 0.00 0.00 0.00 37 1006.1
20260505010551 64 323 7.8 20.0 0.00 0.00 0.00 36 1006.0
20260505010030 64 11 6.1 12.2 0.00 0.00 0.00 36 1005.8
20260505005611 64 328 6.1 15.6 0.00 0.00 0.00 35 1005.7
20260505005046 65 354 7.0 16.5 0.00 0.00 0.00 35 1005.7
20260505004545 65 359 7.8 19.1 0.00 0.00 0.00 34 1005.6
20260505004042 66 354 8.7 19.1 0.00 0.00 0.00 34 1005.5
20260505003603 67 314 7.0 13.9 0.00 0.00 0.00 34 1005.4
20260505003036 67 352 6.1 13.9 0.00 0.00 0.00 33 1005.5
20260505002535 68 335 7.0 13.9 0.00 0.00 0.00 33 1005.2
20260505001548 68 346 5.2 12.2 0.00 0.00 0.00 34 1005.1
20260505001047 69 352 5.2 12.2 0.00 0.00 0.00 34 1004.9
20260505000614 69 29 5.2 12.2 0.00 0.00 0.00 33 1005.0
20260505000049 69 306 6.1 15.6 0.00 0.00 0.00 33 1005.2
20260504235547 70 316 4.3 15.6 0.00 0.00 0.00 33 1005.0
20260504235046 70 359 5.2 13.9 0.00 0.00 0.00 33 1004.9
20260504234545 70 349 7.0 14.8 0.00 0.00 0.00 32 1004.9
20260504234042 71 337 7.8 14.8 0.00 0.00 0.00 31 1004.8
20260504233539 71 330 4.3 14.8 0.00 0.00 0.00 33 1004.8
20260504233037 71 8 6.1 14.8 0.00 0.00 0.00 30 1004.6
20260504232534 72 349 6.1 13.0 0.00 0.00 0.00 30 1004.6
20260504232032 73 307 5.2 13.0 0.00 0.00 0.00 30 1004.4
20260504231530 74 319 2.6 13.0 0.00 0.00 0.00 30 1004.4
20260504231047 74 37 4.3 13.0 0.00 0.00 0.00 30 1004.3
20260504230556 75 314 5.2 17.4 0.00 0.00 0.00 29 1004.2
20260504230036 75 339 7.0 17.4 0.00 0.00 0.00 29 1003.9
20260504225532 75 327 4.3 15.6 0.00 0.00 0.00 29 1003.8
20260504225031 75 1 4.3 13.9 0.00 0.00 0.00 30 1003.7
20260504224548 75 328 7.0 13.9 0.00 0.00 0.00 29 1003.7
20260504224046 76 3 5.2 10.4 0.00 0.00 0.00 30 1003.6
20260504223543 76 356 6.1 15.6 0.00 0.00 0.00 29 1003.4
20260504223041 76 359 7.8 15.6 0.00 0.00 0.00 29 1003.4
20260504222539 77 359 5.2 14.8 0.00 0.00 0.00 30 1003.3
20260504222055 77 326 7.0 14.8 0.00 0.00 0.00 29 1003.1
20260504221533 77 352 5.2 13.0 0.00 0.00 0.00 30 1003.0
20260504221050 77 5 7.8 13.0 0.00 0.00 0.00 29 1002.8
20260504220558 78 359 5.2 12.2 0.00 0.00 0.00 29 1002.7
20260504220039 78 354 5.2 13.0 0.00 0.00 0.00 30 1002.7
20260504215556 78 337 4.3 13.0 0.00 0.00 0.00 32 1002.7
20260504215052 78 314 5.2 8.7 0.00 0.00 0.00 30 1002.6
20260504214549 78 290 3.5 13.9 0.00 0.00 0.00 33 1002.7
20260504214044 78 307 7.0 13.9 0.00 0.00 0.00 31 1002.7
20260504213542 78 311 5.2 11.3 0.00 0.00 0.00 32 1002.6
20260504213038 78 321 5.2 8.7 0.00 0.00 0.00 31 1002.5
20260504212540 78 346 4.3 12.2 0.00 0.00 0.00 33 1002.6
20260504212101 78 298 5.2 13.0 0.00 0.00 0.00 31 1002.5
20260504211535 79 1 4.3 13.0 0.00 0.00 0.00 33 1002.5
20260504211054 79 334 5.2 13.0 0.00 0.00 0.00 34 1002.5
20260504210621 79 332 6.1 13.0 0.00 0.00 0.00 32 1002.5
20260504210040 79 356 6.1 13.0 0.00 0.00 0.00 32 1002.5
20260504205537 80 352 5.2 10.4 0.00 0.00 0.00 32 1002.4
20260504205035 80 360 5.2 12.2 0.00 0.00 0.00 33 1002.4
20260504204530 80 318 5.2 12.2 0.00 0.00 0.00 34 1002.4
20260504204049 80 340 6.1 9.6 0.00 0.00 0.00 33 1002.3
20260504203547 80 324 6.1 9.6 0.00 0.00 0.00 34 1002.3
20260504203044 81 333 3.5 9.6 0.00 0.00 0.00 33 1002.3
20260504202608 80 334 6.1 9.6 0.00 0.00 0.00 36 1002.3
20260504202044 80 349 6.1 10.4 0.00 0.00 0.00 34 1002.3
20260504201541 81 317 6.1 9.6 0.00 0.00 0.00 33 1002.3
20260504201039 81 293 2.6 9.6 0.00 0.00 0.00 35 1002.1
20260504200627 81 296 3.5 12.2 0.00 0.00 0.00 33 1002.0
20260504200045 80 304 5.2 12.2 0.00 0.00 0.00 32 1002.1
20260504195035 80 274 5.2 12.2 0.00 0.00 0.00 32 1002.1
20260504194533 81 314 5.2 11.3 0.00 0.00 0.00 32 1002.2
20260504194034 81 344 5.2 13.9 0.00 0.00 0.00 31 1002.1
20260504193533 81 360 7.8 13.9 0.00 0.00 0.00 30 1002.1
20260504193030 81 282 5.2 13.0 0.00 0.00 0.00 31 1001.9
20260504192549 82 322 5.2 13.0 0.00 0.00 0.00 31 1001.9
20260504192109 82 329 4.3 12.2 0.00 0.00 0.00 30 1001.9
20260504191546 82 342 6.1 12.2 0.00 0.00 0.00 29 1001.8
20260504191044 82 304 7.8 11.3 0.00 0.00 0.00 28 1001.8
20260504190552 81 289 4.3 11.3 0.00 0.00 0.00 28 1001.8
20260504190050 82 286 6.1 11.3 0.00 0.00 0.00 27 1001.8
20260504185546 82 311 6.1 10.4 0.00 0.00 0.00 30 1001.7
20260504185043 82 339 4.3 10.4 0.00 0.00 0.00 31 1001.7
20260504184542 82 340 4.3 12.2 0.00 0.00 0.00 30 1001.7
20260504184101 82 297 4.3 12.2 0.00 0.00 0.00 31 1001.7
20260504183537 82 264 3.5 8.7 0.00 0.00 0.00 29 1001.6
20260504183034 81 266 4.3 9.6 0.00 0.00 0.00 30 1001.7
20260504182532 81 297 4.3 9.6 0.00 0.00 0.00 29 1001.9
20260504182030 81 309 4.3 11.3 0.00 0.00 0.00 30 1001.9
20260504181533 81 325 4.3 11.3 0.00 0.00 0.00 30 1001.8
20260504181050 80 301 3.5 9.6 0.00 0.00 0.00 31 1001.9
20260504180559 81 327 4.3 12.2 0.00 0.00 0.00 28 1002.1
20260504180038 81 335 5.2 12.2 0.00 0.00 0.00 30 1002.1
20260504175536 80 327 6.1 12.2 0.00 0.00 0.00 30 1002.0
20260504175034 80 274 5.2 11.3 0.00 0.00 0.00 32 1002.1
20260504174532 80 279 5.2 9.6 0.00 0.00 0.00 30 1002.1
20260504174030 79 282 4.3 9.6 0.00 0.00 0.00 33 1002.2
20260504173610 79 264 3.5 10.4 0.00 0.00 0.00 33 1002.2
20260504173108 79 296 3.5 10.4 0.00 0.00 0.00 35 1002.3
20260504172545 78 269 4.3 8.7 0.00 0.00 0.00 33 1002.3
20260504172041 78 326 3.5 12.2 0.00 0.00 0.00 35 1002.3
20260504171539 78 277 1.7 12.2 0.00 0.00 0.00 36 1002.3
20260504171034 77 302 5.2 9.6 0.00 0.00 0.00 35 1002.3
20260504170605 77 268 4.3 9.6 0.00 0.00 0.00 36 1002.4
20260504151052 68 270 1.7 5.2 0.00 0.00 0.00 47 1002.5
20260504150620 67 270 1.7 6.1 0.00 0.00 0.00 48 1002.5
20260504141038 63 318 3.5 6.1 0.00 0.00 0.00 52 1003.0
20260504140606 63 304 3.5 6.1 0.00 0.00 0.00 52 1002.9
20260504130610 56 195 0.0 1.7 0.00 0.00 0.00 65 1002.6
20260504110553 54 195 0.9 1.7 0.00 0.00 0.00 64 1002.4
20260504100600 55 195 0.0 0.9 0.00 0.00 0.00 60 1002.6
20260504081555 57 195 0.0 1.7 0.00 0.00 0.00 56 1004.2
20260504081031 57 195 0.9 1.7 0.00 0.00 0.00 56 1004.3
20260504080601 57 195 0.9 1.7 0.00 0.00 0.00 56 1004.2
20260504050559 62 195 0.0 1.7 0.00 0.00 0.00 48 1006.8
20260504045555 62 195 0.0 1.7 0.00 0.00 0.00 49 1006.9
20260504045033 62 195 0.9 1.7 0.00 0.00 0.00 49 1006.9
20260504044551 62 195 0.9 1.7 0.00 0.00 0.00 49 1006.9
20260504044108 62 195 0.9 1.7 0.00 0.00 0.00 49 1007.0
20260504043543 62 195 0.9 1.7 0.00 0.00 0.00 50 1007.2
20260504043037 62 195 0.9 1.7 0.00 0.00 0.00 49 1007.3
20260504042534 62 195 0.9 1.7 0.00 0.00 0.00 50 1007.3
20260504042050 62 195 0.9 1.7 0.00 0.00 0.00 50 1007.3
20260504041546 62 195 0.9 1.7 0.00 0.00 0.00 47 1007.3
20260504041044 62 195 0.0 0.9 0.00 0.00 0.00 48 1007.4
20260504040553 63 195 0.0 0.9 0.00 0.00 0.00 47 1007.4
20260504040051 63 195 0.0 0.9 0.00 0.00 0.00 48 1007.4
20260504035546 63 195 0.0 0.0 0.00 0.00 0.00 47 1007.5
20260504035042 64 195 0.0 0.0 0.00 0.00 0.00 47 1007.5
20260504034538 64 195 0.0 4.3 0.00 0.00 0.00 46 1007.6
20260504034039 65 195 0.9 4.3 0.00 0.00 0.00 45 1007.6
20260504033554 65 195 0.0 0.0 0.00 0.00 0.00 43 1007.6
20260504033049 65 195 0.0 1.7 0.00 0.00 0.00 44 1007.7
20260504032544 65 195 0.0 1.7 0.00 0.00 0.00 43 1007.7
20260504032100 65 195 0.9 1.7 0.00 0.00 0.00 42 1007.7
20260504031535 66 195 0.0 0.9 0.00 0.00 0.00 42 1007.8
20260504031051 65 195 0.0 0.9 0.00 0.00 0.00 41 1007.8
20260504030619 65 195 0.0 0.9 0.00 0.00 0.00 42 1007.8
20260504030034 65 195 0.0 0.9 0.00 0.00 0.00 42 1007.9
20260504025550 65 195 0.0 0.9 0.00 0.00 0.00 43 1007.9
20260504025046 65 195 0.0 0.9 0.00 0.00 0.00 43 1007.9
20260504024540 65 195 0.9 0.9 0.00 0.00 0.00 44 1007.9
20260504024036 65 195 0.9 0.9 0.00 0.00 0.00 43 1007.9
20260504023533 66 195 0.0 0.9 0.00 0.00 0.00 43 1008.0
20260504023048 66 195 0.0 0.0 0.00 0.00 0.00 43 1008.0
20260504022545 66 195 0.0 0.9 0.00 0.00 0.00 43 1008.1
20260504022042 66 195 0.9 0.9 0.00 0.00 0.00 43 1008.0
20260504021538 66 195 0.0 1.7 0.00 0.00 0.00 43 1008.1
20260504021036 66 195 0.9 1.7 0.00 0.00 0.00 43 1008.0
20260504020623 66 195 0.0 0.9 0.00 0.00 0.00 41 1008.2
20260504020041 66 195 0.0 0.0 0.00 0.00 0.00 41 1008.3
20260504015556 67 195 0.0 0.0 0.00 0.00 0.00 41 1008.2
20260504015033 67 195 0.0 0.9 0.00 0.00 0.00 41 1008.3
20260504014533 68 195 0.0 0.9 0.00 0.00 0.00 40 1008.3
20260504014050 68 195 0.0 0.9 0.00 0.00 0.00 39 1008.2
20260504013607 69 195 0.0 1.7 0.00 0.00 0.00 38 1008.2
20260504013043 69 195 0.9 1.7 0.00 0.00 0.00 38 1008.2
20260504012049 70 195 0.9 2.6 0.00 0.00 0.00 37 1008.3